Abilene Regional Airport
KABI : now visible

Airfield :











YOU CAN JOIN US ON...

 
LOGIN :

Register | Disclaimer

   EN    FR    IT 

 









Legend :    VFR   Marginal VFR   IFR   Intensive IFR   Very Intensive IFR
Visi :
Ceiling :
>= 8 km
>= 3000ft
5 to 8 km
1000 to 3000 ft
1500m to 5 km
500 to 1000 ft
800 to 1500m
200 to 500 ft
< 800m
< 200 ft
Symbols :   Thunderstorms  Fog  Heavy snow  Heavy precipitations  Wind > 20 kt






- Airport Elevation : 1791 ft


KABI - Abilene Regional

CURRENT METAR :
  • 261252Z 16007KT 10SM CLR 17/08 A3011 RMK AO2 SLP176 T01670083

EXPIRED METARs :
  • 261152Z 16008KT 10SM CLR 17/08 A3010 RMK AO2 SLP171 T01670083 10194 20167 51005
  • 261052Z 16007KT 10SM CLR 17/08 A3010 RMK AO2 SLP168 T01670083

TAF KABI
Valid from the 26 at 12:00 until the 27 at 12:00 UTC


261120Z 2612/2712 17007KT P6SM SCT250
FM261600 20012G18KT P6SM FEW250
FM270000 16010KT P6SM SCT250
KZFW FIR / North America



MET'MAP, your aeronautical weather chart ! - Copyright ORBIFLY December 2007 - Disclaimer

ORBIFLY MET'MAP TEAM :

Programming & Development : Alexandra Zaïnal
Concept & original design : Baudouin d'Aumeries
Assistance for programming : Marc-Olivier Méhu
Technical & hardware support : Manuel Goepfert

Contact : metmap@orbifly.com




SOURCES & CREDITS :

   NOAA       Earth
Advisory